"Pseudo-MPEC" for TMG0011

Created 2019 Nov 7 19:42:28 UT using Find_Orb

Click here for an explanation of pseudo-MPECs

 
 Astrometry: 
     TMG0011  C2019 11 07xK/eC[0u*uH!8qFx7-OhK/q)`T;?g9e?et+bVo]:j,o]#o5nVe\'381
     TMG0011  C2019 11 07N-d4aYT(rsH7nS$H7rmCA*Astrometry6?HF^^'2kk!,JUiv(74P381
     TMG0011  C2019 11 07DhTF%9#GCW7=]!d4d/5pYD90PxWNredacted;feuEl4H92+)`h*X381
     TMG0011  C2019 11 07-rBamP_,`f7^Ce$.`IOrn;RyDlA(JN!Gkb:AH'h7?1#C?clt8h-J381
     TMG0011  C2019 11 07AQbZA75h\Q\#S\^AtWRwTL:FF-?h:icF`KZ[o#RF_UTumuIJ($.;381
     TMG0011  C2019 11 07%TxvA_[dv[k?3lXCF.6uW;W2se'R?)*oyL.-s8$T^CgPV0P!%Op]381
     TMG0011  C2019 11 07aiHhvBK7K,FA:s3rMqon!KY+C41s*n4Mp#I8(**-6*N*#*grxCw1381
     TMG0011  C2019 11 07NAE9nOa(#X_JhdTu!^$_atkahD*eU3`UL.*h7aFPBJ,%nacLG%F=381
     TMG0011  C2019 11 07Ja+nlJ$YeY_s=Md%M;!x3-#[o@-pE-3Jor;Bvt-/Y'M-k,4`-2tn381
     TMG0011  C2019 11 075Uc0=3UJFclickYsRhaNbn8vO?]u%q[2*/Zs?x)\19`2r4PJkSe`381
     TMG0011  C2019 11 07k;i0xd5I!-/5'(3ddE#%1v9;;-SZGxO6b'UQQhereU,^B?GU*eT-381
     TMG0011  C2019 11 07j?]][^Shkg5j=%RDZ^O5jhT2-!B7fPy1p6HQN!?@C.d`3p^HT4]y381
     TMG0011  C2019 11 07kecl-U38.x.DF9M2Gy@e9-[wUjemiA^T++:rTHJFJUsLgtKa_dHu381
     TMG0011  C2019 11 07Xe[%.#=bH2t@$D\Jokxu2L!s2?v-[TL=34tP*\S=8M]forpLt@Ae381
     TMG0011  C2019 11 07rpxEqK17GLUDChX=sbSL%Ey=;K76Fb=Tahr%M6,]ZOKlmDUJ4JQ;381
     TMG0011  C2019 11 07OB+PynGSU5YNoa!DSPIEwHTRriRvtmL=SVG#IV8)*-j#bh097/6_381
     TMG0011  C2019 11 07dhX-t.[hZxAjnBmrx`!]GE:03JI$Y9dw\v^V^@x?rscA;W9n=nQ9381
     TMG0011  C2019 11 07kNow*(kHZMx)]^\VWU?RqPkeG_pfR;:Xdll]?L0qkmT)Od:+^lV4381
     TMG0011  C2019 11 07]u\vEHN``J.WpkvCUmh#q,ff7JXG9pvOlAwu'm[+8G4y#\A^82$X381
     TMG0011  C2019 11 07$)7%B-qyCHt%;00qHf?7evs,1yh5WFHL:U(1/K3]P)G;p'saGo4-381
     TMG0011  C2019 11 07KEexplanation`:Zr:S@fmPnY9tFv$)xs*nUW/MCcxhJlv-/M#FB381
     TMG0011  C2019 11 076_p66t@4n$\I[k%.4BaVlS2h:B_hy+diEZ%[.EIVI+Y+P8m[Tt'b381
     TMG0011  CK191107:17583542 043.42612   +25.48668            17.0 GV     J95
     TMG0011  CK191107:18024784 043.77067   +25.69312            16.5 GV     J95
     TMG0011  CK191107:18070455 044.12246   +25.90285            16.4 GV     J95
     TMG0011  CK191107:18120275 044.53329   +26.14600            16.5 GV     J95

Station data:
(381) Tokyo-Kiso  (35.797229 E137.625420) Japan. 1.05-m Kiso Schmidt.
(J95) Great Shefford  (51.474969 W1.447003) UK.  Observer P. Birtwhistle.

Orbital elements:  TMG0011
   Perigee 2019 Nov 8.300617 +/- 0.000256 TT =  7:12:53 (JD 2458795.800617)
Epoch 2019 Nov  8.0 TT; AMR 42.1 +/- 5.08 m2/kg              Gray
M 275.2858590693 +/- 0.08           (J2000 equator)
n 281.8005140674 +/- 0.0442         Peri.  215.6733030 +/- 0.049
a 49732.732179 +/- 5.2              Node     2.4708661 +/- 0.011
e   0.468054860 +/- 8.65e-5         Incl.   42.4130125 +/- 0.0033
P1839.56m/1.277d           H 32.6   G  0.15   U 10.6
q 26455.085174 +/- 4.83    Q 73010.379184 +/- 9.2
From 26 observations 2019 Nov. 7 (6.1 hr); mean residual 1".130
Residuals in arcseconds: 
191107 381 1.94+ 2.23+    191107 381 1.13- .985-    191107 381 1.37+ .497+
191107 381 1.23- .625-    191107 381 1.29- .754-    191107 381 0.99- 1.07+
191107 381 1.18+ 1.19+    191107 381 .180+ .483+    191107 381 1.54+ .752+
191107 381 .570- .954-    191107 381 1.99- 1.23-    191107 381 .314- .287+
191107 381 1.30- 2.11-    191107 381 1.78+ 1.28+    191107 J95 7.9m- .129+
191107 381 .365- .847+    191107 381 1.70+ 1.22+    191107 J95 .157+ .123-
191107 381 1.18+ .246+    191107 381 .866- .429-    191107 J95 .167- .018-
191107 381 1.76- 2.58-    191107 381 1.18+ .258+    191107 J95 .053+ .132-
191107 381 1.06+ .366+    191107 381 1.12- 1.30-

Residuals in seconds along-track/arcseconds cross-track: 
191107 381 +.60s .106+    191107 381 -.33s .212-    191107 381 +.31s .595+
191107 381 -.25s .565-    191107 381 -.31s .484-    191107 381 +08ms 1.46-
191107 381 +.35s .159+    191107 381 +.11s .180-    191107 381 +.38s .512+
191107 381 -.23s .163+    191107 381 -.50s .661-    191107 381 -07ms .424-
191107 381 -.53s .362+    191107 381 +.48s .471+    191107 J95 +12ms .111-
191107 381 +89ms .824-    191107 381 +.47s .390+    191107 J95 +12ms .189+
191107 381 +.20s .744+    191107 381 -.21s .334-    191107 J95 -28ms .077-
191107 381 -.67s .305+    191107 381 +.23s .650+    191107 J95 -05ms .139+
191107 381 +.21s .566+    191107 381 -.39s .124+


Ephemerides (geocentric):
Date (UTC) HH   RA              Dec         delta   r     elong  mag " sig PA
---- --------  --------------  -----------  -----  ------ -----  --- --------
2019 11 07 00  13 08 45.439   -13 03 09.52   26655 0.9910  23.8 23??  212 131
2019 11 07 01  15 20 13.429   -34 02 20.83   26944 0.9910  19.5 25??  162 117
2019 11 07 02  17 58 39.506   -42 26 45.31   30217 0.9910  48.6 20?? 95.7  91
2019 11 07 03  20 05 42.716   -38 43 03.38   35118 0.9911  72.1 18.5 50.0  70
2019 11 07 04  21 25 35.441   -31 03 37.15   40498 0.9911  89.7 18.0 24.8  57
2019 11 07 05  22 17 22.180   -23 23 15.20   45767 0.9912 103.2 17.7 11.6  48
2019 11 07 06  22 54 19.371   -16 33 27.26   50671 0.9912 113.9 17.6 4.61  38
2019 11 07 07  23 22 59.479   -10 35 20.86   55109 0.9913 122.8 17.5 1.19   4
2019 11 07 08  23 46 41.506   -05 20 18.18   59047 0.9913 130.4 17.4 1.24  84
2019 11 07 09  00 07 15.305   -00 39 27.87   62480 0.9914 137.0 17.4 1.91  66
2019 11 07 10  00 25 46.988   +03 34 26.01   65415 0.9914 142.9 17.3 2.07  62
2019 11 07 11  00 42 59.693   +07 27 02.28   67861 0.9914 148.2 17.3 1.90  60
2019 11 07 12  00 59 23.862   +11 02 41.50   69830 0.9915 153.1 17.2 1.53  60
2019 11 07 13  01 15 22.749   +14 24 44.47   71332 0.9915 157.5 17.1 1.07  61
2019 11 07 14  01 31 15.653   +17 35 46.45   72374 0.9915 161.5 17.0 .584  62
2019 11 07 15  01 47 19.999   +20 37 46.95   72962 0.9915 164.8 16.9 .121  59
2019 11 07 16  02 03 52.879   +23 32 15.83   73100 0.9915 167.2 16.8 .273  71
2019 11 07 17  02 21 12.364   +26 20 15.89   72788 0.9915 168.0 16.8 .546  74
2019 11 07 18  02 39 38.799   +29 02 21.97   72024 0.9914 167.0 16.8 .650  82
2019 11 07 19  02 59 36.264   +31 38 35.69   70805 0.9914 164.5 16.8 .548 102
2019 11 07 20  03 21 34.311   +34 08 13.88   69123 0.9914 160.8 16.9 .477 169
2019 11 07 21  03 46 10.055   +36 29 27.16   66971 0.9914 156.2 17.0 1.31  42
2019 11 07 22  04 14 10.523   +38 38 42.24   64338 0.9913 151.0 17.1 3.04  59
2019 11 07 23  04 46 34.631   +40 29 37.03   61214 0.9913 145.1 17.1 5.89  69
2019 11 08 00  05 24 33.071   +41 51 11.39   57588 0.9912 138.3 17.2 10.4  78
2019 11 08 01  06 09 22.220   +42 24 50.53   53459 0.9911 130.4 17.2 17.6  87
2019 11 08 02  07 02 06.473   +41 40 00.35   48839 0.9911 120.9 17.3 29.0  97
2019 11 08 03  08 03 08.651   +38 48 19.71   43783 0.9910 109.3 17.4 48.0 107
2019 11 08 04  09 11 52.653   +32 37 35.50   38436 0.9909  94.5 17.7 80.1 118
2019 11 08 05  10 27 37.886   +21 30 05.85   33155 0.9908  74.8 18.2  135 127
2019 11 08 06  11 52 40.587   +03 53 57.40   28722 0.9907  48.6 19??  219 132
2019 11 08 07  13 37 15.930   -18 47 51.63   26467 0.9907  17.8 25??  306 129
2019 11 08 08  15 58 30.328   -37 31 17.40   27456 0.9907  25.7 23??  327 112
2019 11 08 09  18 35 55.018   -42 14 04.23   31182 0.9907  54.1 19??  284  86
2019 11 08 10  20 30 59.379   -36 42 49.84   36245 0.9908  76.2 18.4  228  67
2019 11 08 11  21 42 28.920   -28 42 35.29   41625 0.9908  92.7 17.9  184  58
2019 11 08 12  22 29 50.264   -21 06 25.33   46824 0.9909 105.5 17.7  152  53
2019 11 08 13  23 04 24.292   -14 25 26.10   51629 0.9909 115.8 17.6  130  50
2019 11 08 14  23 31 42.692   -08 35 49.14   55958 0.9910 124.4 17.5  113  49
2019 11 08 15  23 54 36.443   -03 28 01.09   59786 0.9910 131.7 17.4  100  48
2019 11 08 16  00 14 41.854   +01 06 46.94   63110 0.9911 138.1 17.4 90.5  48
2019 11 08 17  00 32 58.046   +05 15 36.71   65938 0.9911 143.9 17.3 83.0  48
2019 11 08 18  00 50 04.350   +09 03 52.68   68281 0.9911 149.1 17.2 77.3  49
2019 11 08 19  01 06 29.082   +12 35 43.16   70150 0.9911 153.9 17.2 72.9  49
2019 11 08 20  01 22 34.335   +15 54 18.71   71553 0.9912 158.2 17.1 69.6  50
2019 11 08 21  01 38 38.843   +19 02 05.77   72499 0.9912 162.0 17.0 67.3  51
2019 11 08 22  01 54 59.896   +22 00 55.67   72992 0.9912 165.1 16.9 65.9  53
2019 11 08 23  02 11 54.780   +24 52 09.99   73035 0.9912 167.2 16.8 65.5  54
2019 11 09 00  02 29 42.059   +27 36 42.23   72629 0.9911 167.6 16.8 66.1  56
2019 11 09 01  02 48 42.865   +30 14 55.88   71771 0.9911 166.3 16.8 67.7  59
2019 11 09 02  03 09 22.357   +32 46 37.57   70456 0.9911 163.5 16.9 70.6  61
2019 11 09 03  03 32 11.442   +35 10 43.36   68678 0.9911 159.7 16.9 75.0  64
2019 11 09 04  03 57 48.766   +37 24 53.90   66428 0.9910 155.1 17.0 81.4  68
2019 11 09 05  04 27 02.728   +39 24 51.71   63695 0.9910 149.7 17.1 90.6  73
2019 11 09 06  05 00 52.680   +41 03 09.07   60469 0.9909 143.6 17.1  103  78
2019 11 09 07  05 40 27.189   +42 07 09.51   56742 0.9909 136.6 17.2  122  85
2019 11 09 08  06 26 55.400   +42 16 02.36   52512 0.9908 128.4 17.2  148  93
2019 11 09 09  07 21 07.463   +40 56 15.72   47801 0.9907 118.6 17.3  188 102
2019 11 09 10  08 23 09.097   +37 15 58.93   42675 0.9906 106.4 17.5  249 112
2019 11 09 11  09 32 21.475   +29 59 25.30   37312 0.9906  90.8 17.7  346 121
2019 11 09 12  10 48 42.263   +17 27 55.15   32137 0.9905  69.9 18.4  496 129
2019 11 09 13  12 16 10.042   -01 31 44.30   28050 0.9904  42.2 20??  693 132
2019 11 09 14  14 07 47.099   -24 13 56.79   26431 0.9904  13.6 27??  829 126
2019 11 09 15  16 38 16.956   -40 02 53.45   28083 0.9904  32.0 22??  775 105
2019 11 09 16  19 10 27.221   -41 20 07.79   32189 0.9904  59.1 19??  617  80
2019 11 09 17  20 53 40.622   -34 30 31.29   37369 0.9905  79.9 18.2  474  64
2019 11 09 18  21 57 57.396   -26 19 49.82   42730 0.9905  95.5 17.9  372  56
2019 11 09 19  22 41 33.051   -18 50 24.85   47850 0.9906 107.7 17.7  303  52
2019 11 09 20  23 14 04.196   -12 18 41.53   52554 0.9906 117.6 17.6  254  49
2019 11 09 21  23 40 12.044   -06 37 30.92   56775 0.9907 125.8 17.5  220  48
2019 11 09 22  00 02 24.289   -01 36 49.27   60493 0.9907 133.0 17.4  195  48
2019 11 09 23  00 22 05.841   +02 52 03.34   63710 0.9908 139.2 17.4  176  48
2019 11 10 00  00 40 09.858   +06 55 53.05   66434 0.9908 144.9 17.3  162  48
2019 11 10 01  00 57 12.409   +10 39 49.85   68675 0.9908 150.0 17.2  151  49
2019 11 10 02  01 13 39.987   +14 07 49.91   70445 0.9908 154.6 17.1  143  50
2019 11 10 03  01 29 53.706   +17 22 53.69   71751 0.9908 158.8 17.1  137  51
2019 11 10 04  01 46 11.865   +20 27 18.71   72601 0.9908 162.5 17.0  134  52
2019 11 10 05  02 02 51.701   +23 22 47.91   73000 0.9908 165.4 16.9  132  54
2019 11 10 06  02 20 10.765   +26 10 34.06   72950 0.9908 167.1 16.8  132  55
2019 11 10 07  02 38 28.160   +28 51 20.64   72450 0.9908 167.2 16.8  133  58